Theta_e
310 310 310 309 310 311 310 310 310 311 312 312 312 311 311 310 309 308 312 314 317 315 310 309 309 307 312 311 308 305 304 304 304 305 307 308 309 309 310 309 308 308 309 308 308 308 308
310 311 310 310 310 310 310 309 311 311 312 312 310 310 310 308 306 305 311 315 317 315 311 306 306 311 313 310 307 305 304 304 305 305 306 306 307 307 307 307 306 307 306 306 306 306 305
309 309 309 310 310 310 310 310 310 310 310 310 308 309 310 309 308 305 311 318 316 312 306 308 311 310 308 307 305 305 305 305 305 305 305 305 305 306 306 306 305 305 305 305 306 306 305
309 310 310 312 312 310 309 307 306 309 309 309 307 307 307 308 307 309 313 314 312 309 307 308 308 309 308 306 305 304 305 306 306 306 306 305 305 306 307 305 305 306 307 309 306 306 308
310 310 311 311 313 311 310 311 311 310 310 307 305 304 304 304 307 311 315 313 309 307 307 306 309 309 308 305 305 305 305 306 306 306 306 305 306 307 308 310 313 310 311 311 310 308 307
310 310 311 310 310 310 311 310 310 311 311 310 310 311 310 309 311 312 308 305 305 305 304 305 306 308 307 306 304 304 305 306 306 307 308 309 310 312 312 314 315 313 311 309 309 309 309
310 310 310 310 311 311 310 310 309 310 309 308 308 309 309 309 310 310 305 307 307 307 305 306 306 306 305 304 304 305 305 306 307 308 311 308 316 314 310 308 308 308 309 311 312 312 310
309 310 309 310 309 310 309 310 309 309 308 308 307 307 307 306 307 306 308 308 307 307 309 307 307 306 305 305 307 307 306 309 310 312 311 313 313 309 308 309 310 311 314 316 314 312 312
308 309 309 309 310 309 309 309 308 307 308 307 307 307 307 307 305 306 306 306 305 305 311 309 308 309 308 308 308 309 308 309 310 313 312 315 311 307 309 312 314 315 315 314 314 313 314
308 308 309 309 308 308 308 308 306 306 307 307 307 305 304 305 307 308 307 304 304 306 318 310 310 309 309 309 311 308 308 310 312 313 313 314 309 310 312 315 314 317 312 311 312 314 318
307 308 308 308 307 307 308 308 308 305 306 307 307 306 306 308 308 308 306 304 305 306 324 309 310 308 309 311 311 311 309 311 313 313 313 315 312 313 316 315 313 316 312 313 314 316 315
306 306 306 307 307 307 307 308 307 305 304 304 307 306 304 306 307 305 304 304 305 318 317 311 310 312 313 312 313 312 312 311 312 314 313 313 311 312 314 312 313 313 314 314 315 315 318
302 302 303 305 307 307 307 306 305 305 304 304 304 305 305 305 308 304 304 307 317 319 307 313 313 312 313 313 314 315 316 316 317 319 320 317 315 312 311 316 315 315 317 325 324 323 325
301 300 302 305 305 305 305 306 305 304 304 304 304 305 305 305 305 305 307 315 319 310 311 310 312 312 314 313 314 315 317 318 315 316 318 321 326 314 314 316 318 317 318 322 322 324 321
302 301 301 304 306 305 304 304 305 305 304 304 305 308 308 305 305 305 312 321 316 313 311 312 313 314 314 312 312 313 315 315 314 314 318 319 320 313 313 314 316 318 319 316 320 318 320
307 303 300 303 304 305 305 304 304 305 305 304 307 308 308 304 303 308 316 313 312 309 310 311 313 312 313 313 313 313 314 312 314 313 313 316 318 315 314 314 315 317 316 318 321 321 323
306 306 302 300 302 304 304 305 304 304 305 304 308 311 306 304 305 314 320 313 311 309 310 312 312 312 312 312 312 312 313 312 312 313 312 314 315 317 314 316 318 318 317 315 315 318 322
304 306 306 304 301 301 303 304 304 304 305 305 308 317 305 304 316 313 315 312 309 312 310 312 312 312 312 312 312 312 312 311 311 312 314 313 314 317 315 313 312 312 313 312 317 320 318
299 302 305 305 305 303 301 302 304 304 304 306 310 310 307 307 319 313 310 311 311 311 312 311 312 311 311 312 312 312 312 311 311 313 313 313 315 317 315 311 311 312 313 312 311 314 318
307 301 300 305 305 304 302 303 303 302 302 305 309 316 311 309 308 311 311 311 311 310 311 311 311 310 311 311 310 311 311 311 311 311 310 310 313 315 316 313 312 312 311 311 312 316 315
306 307 301 300 305 304 303 304 302 302 302 305 308 310 306 314 309 310 309 310 310 311 310 310 311 311 310 309 310 310 310 310 310 309 311 312 314 313 313 312 311 311 311 311 313 312 312
307 306 307 300 300 304 304 303 303 302 303 308 310 309 306 307 307 308 307 309 310 309 309 310 311 310 310 310 308 306 308 309 308 310 310 310 311 310 311 310 309 310 310 310 310 310 311
309 307 306 307 299 300 304 303 303 303 304 307 305 305 307 306 307 308 309 308 308 308 308 308 309 309 310 309 308 308 308 309 309 309 310 309 310 311 311 310 309 309 309 308 309 309 310
310 308 307 306 307 300 300 304 303 303 303 304 305 305 308 308 306 307 306 306 308 308 309 308 309 309 308 307 308 308 308 308 308 308 309 309 310 310 312 310 314 308 307 307 308 308 308
312 310 308 307 306 307 300 299 304 303 303 303 302 305 307 308 306 306 305 305 306 307 308 309 309 308 307 308 309 308 310 307 308 309 309 309 310 311 312 310 310 308 304 306 307 308 308
312 312 310 308 307 306 307 299 299 304 303 303 302 302 305 307 309 305 305 305 306 307 307 307 306 306 307 309 308 309 308 307 307 306 305 308 309 311 310 310 310 305 305 306 307 308 307
310 311 311 310 308 307 306 307 298 300 304 303 303 301 304 307 308 304 306 307 305 306 307 307 307 308 308 309 310 309 308 307 307 308 309 309 310 312 312 313 311 309 306 306 307 308 305
308 309 311 311 310 308 307 306 306 297 301 304 304 302 303 307 307 303 304 305 306 306 307 308 309 308 309 310 309 310 309 309 308 308 309 310 311 311 311 313 313 306 306 306 306 304 307
308 308 309 310 310 310 308 306 306 305 297 303 304 303 301 302 306 302 303 303 304 305 306 307 308 308 310 310 310 309 309 309 308 308 307 308 309 310 310 312 309 306 308 307 306 306 306
Wind_Speed
25 26 25 24 22 21 21 19 17 18 17 16 17 17 15 14 9 8 9 20 22 16 17 16 17 8 3 11 10 9 11 10 9 7 6 5 1 1 2 1 2 6 2 5 7 8 10
23 24 26 25 21 21 21 22 22 20 18 16 15 15 15 13 6 8 9 22 26 20 19 18 13 7 4 14 5 7 9 11 13 10 11 7 4 3 3 1 4 3 6 9 6 8 7
26 24 23 20 17 16 19 19 19 19 16 14 16 14 14 12 7 9 10 29 28 22 21 20 19 20 24 9 6 9 11 12 12 10 10 9 5 4 0 1 2 4 8 8 9 6 5
24 24 24 24 17 16 19 20 14 14 13 10 8 8 9 11 10 11 13 32 26 21 19 19 11 11 7 3 5 7 7 9 10 9 7 6 6 4 4 1 3 5 4 6 6 3 2
25 24 26 30 25 24 23 27 25 18 16 7 5 5 8 11 14 16 22 28 24 19 16 10 7 7 7 4 4 6 8 5 5 6 6 5 3 2 2 3 5 5 8 7 6 3 3
27 24 27 28 28 27 26 27 25 28 32 33 28 23 21 15 19 29 34 27 22 12 13 7 6 5 4 5 3 3 5 6 3 1 2 1 1 1 1 3 4 6 8 7 10 2 11
26 25 26 26 28 25 27 28 26 27 30 33 34 38 35 33 37 33 28 15 7 7 21 11 9 13 9 5 1 5 6 4 2 1 1 3 3 4 2 4 4 4 9 12 14 9 11
25 24 24 24 24 24 26 28 26 25 25 31 34 36 38 29 29 17 10 5 7 7 14 15 14 12 7 2 2 6 6 1 3 4 1 3 4 3 1 1 3 3 9 11 6 5 15
23 22 23 24 25 24 23 22 23 23 24 20 20 21 15 14 13 9 13 7 5 2 6 6 5 5 4 4 4 5 6 1 4 5 5 2 3 2 3 4 7 8 8 9 8 17 17
22 20 20 21 23 24 24 24 20 18 14 11 14 14 13 12 9 7 6 4 1 3 3 5 3 3 1 2 2 3 3 3 2 4 3 1 3 2 4 7 6 8 6 6 9 10 5
18 18 19 18 20 22 23 21 19 16 15 12 12 11 4 4 8 5 1 3 4 3 4 4 3 3 3 2 1 2 1 2 4 5 2 1 1 3 6 4 2 5 3 9 10 8 9
16 15 16 17 19 21 22 23 19 13 14 15 10 7 10 8 7 4 4 6 1 1 4 3 3 2 3 0 1 1 0 1 1 2 1 4 0 3 4 6 7 10 10 9 3 2 4
14 14 13 15 17 20 22 21 19 13 10 11 14 11 5 3 1 5 6 2 3 4 2 1 1 1 1 5 3 6 6 4 5 5 4 5 5 2 4 5 3 3 5 2 2 3 3
12 12 11 13 16 19 21 22 18 13 8 8 9 7 5 1 2 5 2 1 7 1 2 2 2 1 5 7 3 5 5 3 3 3 4 3 3 5 9 3 2 2 2 3 5 5 9
13 11 9 11 14 17 19 22 21 14 9 8 8 5 4 7 3 3 5 5 2 2 1 1 1 3 3 2 3 4 2 3 2 1 4 4 1 2 6 3 3 3 2 4 4 9 5
11 11 9 8 11 13 16 20 23 20 10 7 4 3 1 8 5 6 4 4 2 1 2 2 3 2 3 3 2 1 1 3 0 2 3 2 6 3 3 3 7 7 6 3 3 5 5
11 10 9 9 9 11 14 17 22 22 17 5 1 3 3 6 3 0 4 4 3 2 1 2 2 2 3 3 4 4 2 3 2 1 4 4 1 0 3 7 3 5 4 5 3 5 4
10 10 10 9 10 11 12 15 19 21 20 6 1 1 7 4 1 1 4 7 5 8 5 3 2 3 3 3 5 4 3 2 2 2 4 2 4 6 6 4 2 5 6 4 3 1 6
11 10 10 11 11 10 11 13 16 17 18 7 3 1 3 3 1 3 3 5 3 5 6 6 7 6 4 3 4 5 4 2 4 3 3 2 2 6 4 3 3 5 8 8 5 4 8
12 11 10 9 11 10 9 10 14 16 14 5 3 2 1 2 1 0 3 4 4 5 4 4 3 4 6 6 8 5 5 1 3 5 2 0 6 9 8 11 8 11 10 10 9 5 7
12 12 10 9 9 10 9 9 12 13 13 4 3 2 3 1 3 1 1 3 7 5 5 6 5 12 8 4 5 6 6 6 6 3 4 4 7 12 17 22 20 21 21 19 18 18 9
11 11 11 10 8 7 7 8 11 13 9 2 3 3 2 0 1 3 5 7 9 5 5 6 8 5 9 7 6 6 6 6 7 6 6 4 5 12 16 16 11 17 19 19 21 22 24
10 11 11 11 9 8 7 7 9 11 7 2 1 2 4 4 3 3 3 3 5 4 6 5 5 6 9 11 10 11 12 13 10 7 8 5 4 7 6 8 16 15 17 21 13 12 18
12 11 11 11 10 9 8 8 8 8 7 2 1 2 3 2 5 5 2 3 7 8 6 2 5 6 2 5 12 14 13 15 15 15 12 9 6 5 7 12 4 2 3 4 17 12 16
13 13 12 12 12 10 9 8 8 7 6 2 1 2 2 5 4 8 9 8 6 8 7 10 10 6 3 7 5 7 4 4 5 12 14 13 10 5 4 6 14 9 4 5 6 3 10
13 13 14 13 13 13 11 10 8 9 7 4 3 3 3 4 1 5 4 5 6 7 6 5 1 1 3 3 3 3 3 3 3 3 3 9 12 6 2 5 5 4 4 2 2 5 7
14 14 15 16 15 14 14 11 10 9 10 7 4 5 3 4 6 5 6 5 2 3 4 1 4 4 4 4 4 5 5 1 3 4 6 4 7 14 11 7 10 2 8 5 3 3 8
16 16 17 16 17 17 15 15 12 10 11 11 6 9 5 4 8 8 6 7 3 5 5 4 2 4 5 5 4 4 4 3 3 5 5 10 6 6 7 7 10 10 6 6 3 2 2
18 18 18 17 17 19 19 16 16 12 12 12 7 10 12 6 6 4 13 16 18 17 7 4 4 1 4 5 3 3 4 4 5 4 8 6 9 3 10 6 1 12 9 9 4 5 7
Wind_Direction
25 24 34 35 35 41 46 42 50 74 104 109 110 105 105 101 99 99 123 140 150 131 134 139 147 129 105 83 64 19 25 19 28 43 47 45 75 120 173 129 231 257 299 281 274 282 281
28 29 34 36 35 38 48 56 64 83 89 95 105 101 97 86 89 107 112 137 138 147 149 141 130 99 131 87 46 35 37 44 46 59 56 42 45 15 95 92 262 10 283 273 276 272 272
28 28 31 32 33 40 50 49 56 72 86 93 110 102 103 97 102 123 128 148 140 141 137 112 105 89 69 84 75 59 56 52 48 47 63 43 29 311 320 165 341 299 291 270 229 255 266
26 24 28 25 33 47 51 47 46 62 73 88 103 114 112 107 120 124 117 117 120 121 120 122 73 73 75 73 72 46 49 52 48 47 50 41 49 67 354 342 235 264 261 283 120 135 127
28 31 33 38 62 72 63 50 63 63 68 82 110 130 127 117 132 128 125 109 109 114 100 66 51 88 99 110 71 43 35 29 27 43 46 48 33 54 211 274 259 199 297 315 326 101 308
35 43 45 54 61 67 60 57 60 71 76 72 79 97 114 126 134 126 118 110 97 78 65 84 62 90 162 95 72 23 24 21 12 358 178 52 22 205 298 329 318 337 317 295 288 228 288
36 40 47 53 53 55 55 57 72 67 71 75 78 97 102 95 117 125 106 104 153 67 58 58 65 84 105 100 97 32 0 333 322 68 351 58 73 60 41 6 350 326 292 292 294 330 315
37 39 45 46 48 46 56 58 63 63 72 78 80 97 100 102 108 103 57 43 31 100 77 66 75 77 82 44 82 32 347 353 25 63 132 166 94 73 81 285 278 251 295 311 319 324 318
35 40 43 47 45 40 36 43 54 66 77 82 68 109 112 102 75 71 80 60 88 37 95 72 42 44 25 336 44 29 348 330 20 35 32 49 90 153 262 275 284 286 304 327 324 322 287
34 33 39 41 40 37 33 33 40 56 72 62 62 96 101 100 88 112 59 69 22 300 102 26 16 59 17 313 104 1 6 348 78 21 6 85 113 261 290 293 304 318 31 330 315 325 311
36 35 28 32 31 32 26 26 29 44 57 59 71 95 92 117 123 95 144 348 318 243 79 6 37 343 342 349 339 114 341 277 41 354 314 47 299 293 288 347 338 316 338 304 290 289 306
28 35 36 26 28 28 30 25 26 40 54 63 72 100 108 76 67 77 350 329 272 20 69 342 330 329 229 29 113 6 12 168 29 352 269 274 215 273 305 315 275 302 314 305 228 241 260
24 24 31 31 21 27 28 32 32 35 47 57 65 85 119 86 103 325 333 239 40 48 225 46 34 320 349 28 48 4 359 13 4 8 354 302 215 231 245 279 165 356 307 251 233 218 290
24 18 19 25 25 21 29 32 29 22 21 29 39 61 96 105 307 323 273 154 65 194 91 168 288 343 33 7 50 345 325 340 105 343 310 320 228 209 166 262 297 337 10 339 302 333 315
20 13 8 12 18 20 19 26 29 23 356 349 350 351 355 330 313 299 267 51 76 66 38 28 57 10 47 53 307 326 307 330 2 226 329 326 269 171 207 248 251 87 275 344 274 257 269
16 7 357 354 3 10 14 12 14 15 7 346 343 310 331 331 319 265 74 81 55 12 2 332 10 359 342 20 292 255 264 89 281 255 268 6 289 247 132 232 225 248 344 272 193 310 303
13 11 360 349 342 350 354 358 359 2 359 9 353 271 346 350 307 191 78 87 124 174 257 307 17 294 290 316 284 283 297 141 215 205 270 312 246 264 234 205 215 184 229 216 288 258 297
353 6 10 351 341 337 340 345 350 353 356 13 327 305 342 357 305 85 127 149 160 165 176 192 278 288 285 305 273 273 265 277 176 241 292 47 299 275 257 120 287 270 264 255 278 298 262
344 345 354 0 352 342 345 348 352 354 359 332 312 303 347 2 75 113 133 150 215 173 196 188 205 225 211 262 277 246 273 133 199 231 329 72 236 298 166 161 177 229 216 236 269 316 252
329 339 338 351 359 353 352 359 359 355 354 348 292 310 107 123 38 237 176 193 196 213 228 220 228 214 216 233 221 268 262 247 188 231 90 275 257 244 261 294 306 278 243 224 229 253 269
318 324 334 334 347 357 352 0 6 8 358 357 355 59 351 269 129 146 295 179 213 206 232 212 218 231 215 247 229 236 246 261 211 163 210 250 269 268 270 275 274 269 265 252 231 227 257
313 313 319 327 326 339 350 349 2 6 12 17 319 295 184 274 267 214 162 198 228 226 216 233 240 240 230 251 266 297 264 244 265 170 212 206 270 303 293 273 263 262 253 244 242 245 239
311 304 308 311 318 317 325 332 349 4 23 51 17 307 295 121 197 228 237 250 223 202 213 262 286 271 249 270 303 298 285 269 272 249 216 236 272 320 271 321 305 279 252 223 222 227 228
303 295 292 298 299 308 304 306 320 347 16 1 27 291 282 256 237 230 228 225 238 234 267 268 242 249 18 312 288 261 257 257 252 243 238 247 242 261 284 306 253 52 38 337 218 244 229
302 295 284 284 288 290 293 289 290 302 333 8 319 290 292 284 292 259 240 245 247 236 244 256 246 253 324 304 289 294 203 236 234 229 234 230 244 273 272 289 278 288 173 191 190 293 224
292 295 285 275 279 280 281 282 275 275 282 299 263 218 270 302 291 276 267 243 250 240 235 227 216 219 236 254 246 261 266 359 195 181 265 216 230 240 252 280 275 58 144 155 170 248 155
289 288 287 277 272 270 273 271 268 261 258 254 268 220 255 256 245 203 232 275 225 260 268 150 173 184 221 223 242 244 254 101 247 228 173 182 210 225 234 262 277 279 144 155 247 107 162
295 291 287 282 273 265 260 264 260 254 249 237 240 227 230 259 272 227 219 212 220 241 259 109 210 195 188 221 240 239 247 205 260 225 188 194 196 202 206 234 258 137 130 210 56 99 190
289 289 285 284 278 271 260 252 254 247 241 234 237 234 225 234 280 264 246 248 245 260 273 203 313 227 228 233 236 291 249 235 251 258 201 239 215 234 210 229 81 193 239 222 242 251 246